• In Netherlands
  • List of Countries
  • For 7 days
  • Water Temperature
  • Satellite Maps
  • Weather Map
  • Weather Widgets
  • user-avatar
    Login

    Hourly Weather Antwerp

    Today, 19 June, Tuesday

    Time Temperature Precipitation Wind Pressure Humidity
    00:00 +14°C° 0 mm 4 mps 765 mmHg 92%
    01:00 +14°C° 0 mm 4 mps 765 mmHg 93%
    02:00 +14°C° 0 mm 4 mps 765 mmHg 94%
    03:00 +14°C° 0 mm 4 mps 765 mmHg 95%
    04:00 +15°C° 0 mm 4 mps 766 mmHg 94%
    05:00 +17°C° 0 mm 4 mps 766 mmHg 92%
    06:00 +17°C° 0 mm 4 mps 766 mmHg 90%
    07:00 +18°C° 0 mm 4 mps 767 mmHg 89%
    08:00 +18°C° 0 mm 4 mps 767 mmHg 87%
    09:00 +19°C° 0 mm 4 mps 767 mmHg 86%
    10:00 +19°C° 0 mm 3 mps 767 mmHg 85%
    11:00 +20°C° 0 mm 3 mps 767 mmHg 83%
    12:00 +20°C° 0 mm 3 mps 768 mmHg 81%
    13:00 +20°C° 0 mm 3 mps 767 mmHg 80%
    14:00 +21°C° 0 mm 3 mps 767 mmHg 79%
    15:00 +21°C° 0 mm 3 mps 767 mmHg 78%
    16:00 +21°C° 0 mm 3 mps 767 mmHg 80%
    17:00 +20°C° 0 mm 2 mps 767 mmHg 82%
    18:00 +20°C° 0 mm 2 mps 767 mmHg 84%
    19:00 +19°C° 0 mm 2 mps 767 mmHg 86%
    20:00 +19°C° 0 mm 2 mps 767 mmHg 89%
    21:00 +18°C° 0 mm 2 mps 767 mmHg 91%
    22:00 +18°C° 0 mm 2 mps 767 mmHg 92%
    23:00 +17°C° 0 mm 2 mps 767 mmHg 93%

    Tomorrow, 20 June, Wednesday

    Time Temperature Precipitation Wind Pressure Humidity
    00:00 +17°C° 0 mm 2 mps 767 mmHg 94%
    01:00 +16°C° 0 mm 2 mps 767 mmHg 95%
    02:00 +16°C° 0 mm 2 mps 766 mmHg 95%
    03:00 +15°C° 0 mm 2 mps 766 mmHg 96%
    04:00 +16°C° 0 mm 3 mps 766 mmHg 93%
    05:00 +17°C° 0 mm 3 mps 766 mmHg 91%
    06:00 +18°C° 0 mm 3 mps 766 mmHg 89%
    07:00 +19°C° 0 mm 3 mps 766 mmHg 83%
    08:00 +21°C° 0 mm 4 mps 766 mmHg 77%
    09:00 +22°C° 0 mm 4 mps 765 mmHg 72%
    10:00 +23°C° 0 mm 4 mps 765 mmHg 70%
    11:00 +25°C° 0 mm 4 mps 765 mmHg 69%
    12:00 +25°C° 0 mm 4 mps 765 mmHg 67%
    13:00 +25°C° 0 mm 4 mps 765 mmHg 67%
    14:00 +25°C° 0 mm 4 mps 765 mmHg 67%
    15:00 +25°C° 0 mm 4 mps 764 mmHg 67%
    16:00 +25°C° 0 mm 4 mps 764 mmHg 69%
    17:00 +23°C° 0 mm 4 mps 764 mmHg 71%
    18:00 +24°C° 0 mm 3 mps 764 mmHg 73%
    19:00 +21°C° 0 mm 3 mps 764 mmHg 78%
    20:00 +20°C° 0 mm 3 mps 764 mmHg 84%
    21:00 +18°C° 0 mm 2 mps 764 mmHg 90%
    22:00 +17°C° 0 mm 3 mps 764 mmHg 91%
    23:00 +17°C° 0 mm 3 mps 763 mmHg 92%

    Day after tomorrow, 21 June, Thursday

    Time Temperature Precipitation Wind Pressure Humidity
    00:00 +16°C° 0 mm 3 mps 763 mmHg 93%
    01:00 +16°C° 0 mm 3 mps 763 mmHg 93%
    02:00 +15°C° 0 mm 4 mps 763 mmHg 93%
    03:00 +15°C° 0 mm 4 mps 762 mmHg 93%
    04:00 +15°C° 0 mm 5 mps 763 mmHg 90%
    05:00 +15°C° 0 mm 5 mps 763 mmHg 88%
    06:00 +15°C° 0 mm 6 mps 763 mmHg 85%
    07:00 +15°C° 0 mm 7 mps 763 mmHg 79%
    08:00 +15°C° 0 mm 7 mps 764 mmHg 72%
    09:00 +15°C° 0 mm 8 mps 764 mmHg 66%
    10:00 +16°C° 0 mm 8 mps 765 mmHg 61%
    11:00 +16°C° 0 mm 8 mps 765 mmHg 57%
    12:00 +17°C° 0 mm 8 mps 765 mmHg 52%
    13:00 +16°C° 0 mm 8 mps 766 mmHg 53%
    14:00 +16°C° 0 mm 8 mps 766 mmHg 54%
    15:00 +16°C° 0 mm 8 mps 766 mmHg 55%
    16:00 +15°C° 0 mm 7 mps 767 mmHg 58%
    17:00 +15°C° 0 mm 7 mps 767 mmHg 61%
    18:00 +14°C° 0 mm 6 mps 768 mmHg 64%
    19:00 +13°C° 0 mm 5 mps 768 mmHg 67%
    20:00 +12°C° 0 mm 5 mps 769 mmHg 70%
    21:00 +11°C° 0 mm 4 mps 769 mmHg 73%
    22:00 +10°C° 0 mm 4 mps 769 mmHg 73%
    23:00 +10°C° 0 mm 3 mps 769 mmHg 73%

    22 June, Friday

    Time Temperature Precipitation Wind Pressure Humidity
    00:00 +10°C° 0 mm 3 mps 769 mmHg 72%
    01:00 +10°C° 0 mm 3 mps 769 mmHg 72%
    02:00 +10°C° 0 mm 4 mps 769 mmHg 72%
    03:00 +10°C° 0 mm 4 mps 768 mmHg 72%
    04:00 +10°C° 0 mm 5 mps 769 mmHg 71%
    05:00 +12°C° 0 mm 5 mps 769 mmHg 71%
    06:00 +13°C° 0 mm 6 mps 769 mmHg 70%
    07:00 +13°C° 0 mm 6 mps 769 mmHg 70%
    08:00 +13°C° 0 mm 6 mps 769 mmHg 70%
    09:00 +14°C° 0 mm 6 mps 769 mmHg 69%
    10:00 +14°C° 0.1 mm 6 mps 769 mmHg 69%
    11:00 +14°C° 0.1 mm 6 mps 769 mmHg 69%
    12:00 +14°C° 0.1 mm 6 mps 769 mmHg 69%
    13:00 +15°C° 0.1 mm 6 mps 769 mmHg 68%
    14:00 +15°C° 0.1 mm 6 mps 769 mmHg 67%
    15:00 +16°C° 0.1 mm 6 mps 769 mmHg 66%
    16:00 +15°C° 0 mm 6 mps 769 mmHg 68%
    17:00 +15°C° 0 mm 6 mps 769 mmHg 70%
    18:00 +14°C° 0 mm 5 mps 769 mmHg 71%
    19:00 +13°C° 0 mm 5 mps 770 mmHg 75%
    20:00 +12°C° 0 mm 4 mps 770 mmHg 78%
    21:00 +11°C° 0 mm 3 mps 770 mmHg 81%
    22:00 +11°C° 0 mm 3 mps 770 mmHg 83%
    23:00 +10°C° 0 mm 3 mps 770 mmHg 84%

    23 June, Saturday

    Time Temperature Precipitation Wind Pressure Humidity
    00:00 +10°C° 0 mm 2 mps 770 mmHg 86%
    01:00 +9°C° 0 mm 2 mps 770 mmHg 87%
    02:00 +9°C° 0 mm 2 mps 770 mmHg 88%
    03:00 +9°C° 0 mm 2 mps 770 mmHg 89%
    04:00 +10°C° 0 mm 2 mps 770 mmHg 85%
    05:00 +11°C° 0 mm 3 mps 770 mmHg 82%
    06:00 +13°C° 0 mm 3 mps 770 mmHg 78%
    07:00 +14°C° 0 mm 3 mps 770 mmHg 75%
    08:00 +14°C° 0 mm 3 mps 770 mmHg 72%
    09:00 +16°C° 0 mm 3 mps 770 mmHg 69%
    10:00 +17°C° 0.1 mm 3 mps 770 mmHg 68%
    11:00 +17°C° 0.1 mm 3 mps 769 mmHg 67%
    12:00 +18°C° 0.1 mm 4 mps 769 mmHg 66%
    13:00 +18°C° 0.1 mm 4 mps 769 mmHg 64%
    14:00 +19°C° 0.1 mm 4 mps 769 mmHg 62%
    15:00 +19°C° 0.1 mm 4 mps 769 mmHg 61%
    16:00 +19°C° 0 mm 4 mps 768 mmHg 62%
    17:00 +18°C° 0 mm 3 mps 768 mmHg 64%
    18:00 +18°C° 0 mm 3 mps 768 mmHg 66%
    19:00 +16°C° 0 mm 3 mps 768 mmHg 70%
    20:00 +15°C° 0 mm 2 mps 768 mmHg 75%
    21:00 +13°C° 0 mm 2 mps 769 mmHg 80%
    22:00 +13°C° 0 mm 2 mps 769 mmHg 83%
    23:00 +12°C° 0 mm 1 mps 768 mmHg 85%

    24 June, Sunday

    Time Temperature Precipitation Wind Pressure Humidity
    00:00 +11°C° 0 mm 1 mps 768 mmHg 88%
    01:00 +11°C° 0 mm 1 mps 768 mmHg 88%
    02:00 +11°C° 0 mm 1 mps 768 mmHg 89%
    03:00 +10°C° 0 mm 1 mps 768 mmHg 90%
    04:00 +11°C° 0 mm 1 mps 768 mmHg 86%
    05:00 +13°C° 0 mm 1 mps 768 mmHg 83%
    06:00 +14°C° 0 mm 1 mps 768 mmHg 79%
    07:00 +15°C° 0 mm 1 mps 768 mmHg 73%
    08:00 +16°C° 0 mm 1 mps 768 mmHg 67%
    09:00 +19°C° 0 mm 1 mps 768 mmHg 61%
    10:00 +19°C° 0 mm 2 mps 768 mmHg 58%
    11:00 +20°C° 0 mm 2 mps 768 mmHg 55%
    12:00 +20°C° 0 mm 2 mps 768 mmHg 52%
    13:00 +21°C° 0 mm 3 mps 767 mmHg 52%
    14:00 +21°C° 0 mm 3 mps 767 mmHg 52%
    15:00 +22°C° 0 mm 3 mps 767 mmHg 51%
    16:00 +21°C° 0 mm 3 mps 767 mmHg 55%
    17:00 +20°C° 0 mm 3 mps 767 mmHg 59%
    18:00 +20°C° 0 mm 3 mps 767 mmHg 63%
    19:00 +18°C° 0 mm 3 mps 767 mmHg 68%
    20:00 +17°C° 0 mm 3 mps 768 mmHg 72%
    21:00 +14°C° 0 mm 3 mps 768 mmHg 77%
    22:00 +15°C° 0 mm 2 mps 768 mmHg 79%
    23:00 +14°C° 0 mm 2 mps 768 mmHg 82%
    Show more